Terminal Aerodrome Forecast
Issued by NWS Dodge City, KS

Home | Current Version | Previous Version | Text Only | Print | Product List | Glossary On
Versions: 1 2 3 4 5 6 7 8 9 10 11 12 13 14 15 16 17 18 19 20 21 22 23 24 25 26 27 28 29 30 31 32 33 34 35 36 37
000
FTUS43 KDDC 191438 AAA
TAFDDC
TAF AMD
KDDC 191438Z 1915/2012 35018G26KT P6SM OVC006
     FM191700 04012G24KT P6SM BKN035
     FM200300 12013KT P6SM SCT030 WS020/18040KT
     FM200900 06014KT P6SM SCT008
     FM201100 34015G23KT P6SM SCT008=

USA.gov is the U.S. government's official web portal to all federal, state and local government web resources and services.